Wind_Speed
9 13 15 18 19 25 21 24 25 24 22 23 21 23 25 19 16 19 20 20 19 10 6 15 9 6 10 13 18 21 22 24 24 23 23 24 23 26 29 30 31 30 30 28
12 16 16 22 26 26 19 23 25 22 18 19 22 24 20 22 20 15 13 8 9 9 8 7 10 13 14 18 20 24 24 25 25 24 23 24 24 26 28 27 26 27 28 26
14 19 17 18 18 20 20 22 20 21 21 17 18 22 17 21 19 21 5 5 6 5 7 7 8 15 19 19 21 23 24 25 27 26 25 26 26 28 27 28 28 32 29 28
11 9 21 21 20 18 20 17 20 19 15 10 8 17 23 19 19 9 8 2 4 7 7 9 11 12 17 20 23 24 26 26 26 25 25 26 25 23 25 25 29 30 30 32
15 19 21 19 15 18 13 12 18 20 18 15 21 6 6 13 7 6 4 6 7 8 10 12 12 17 20 21 23 24 26 27 27 27 27 27 27 30 28 28 31 29 31 32
18 17 13 16 12 12 13 8 16 16 12 6 16 8 3 7 7 5 7 7 8 12 12 12 16 21 22 24 24 25 26 28 27 28 29 29 30 31 28 28 27 29 29 30
22 13 10 11 4 7 3 4 7 4 3 6 13 11 6 14 5 6 4 7 9 12 12 13 15 14 21 24 26 26 25 27 27 28 30 31 33 32 33 31 28 30 28 31
8 13 10 12 10 13 11 3 3 7 4 10 16 5 4 10 10 6 4 5 11 13 13 14 15 14 21 24 26 27 28 29 29 30 32 33 34 34 34 33 31 32 31 31
8 7 16 16 3 5 3 3 4 7 8 3 4 7 9 11 6 7 9 11 11 14 14 15 16 19 23 25 26 27 29 31 31 32 32 34 34 35 37 36 36 33 38 31
5 18 15 18 3 6 5 7 5 2 4 6 7 11 5 7 6 11 14 9 12 13 14 15 15 17 24 27 29 28 29 31 33 32 32 34 34 36 38 38 37 37 37 39
13 6 12 7 3 15 7 4 3 4 1 3 9 8 4 3 3 6 6 10 10 10 11 12 14 20 24 27 27 28 29 29 32 32 32 33 34 35 38 37 37 38 37 40
4 7 8 14 12 1 2 3 2 1 6 3 5 15 1 5 5 2 6 10 10 9 13 11 13 16 22 25 27 27 28 28 31 32 33 33 33 34 34 37 38 39 40 37
7 3 11 8 6 3 3 3 3 3 3 7 7 10 7 21 13 8 6 8 8 12 14 14 14 15 15 26 29 28 29 30 31 32 31 32 33 33 36 37 38 39 32 40
7 3 4 10 8 10 11 10 4 4 3 8 9 18 19 19 17 15 9 7 7 10 12 14 15 16 17 27 29 31 31 31 31 31 31 30 31 36 37 38 36 37 31 35
1 5 4 8 11 13 14 15 9 5 10 8 16 15 21 17 14 8 8 7 9 12 14 15 16 16 18 24 32 34 35 34 34 29 26 25 27 31 34 35 33 35 32 32
3 4 3 7 10 7 7 10 9 11 8 5 8 12 10 6 7 6 7 8 10 13 14 16 16 17 19 22 30 35 35 34 35 29 26 23 18 28 31 28 27 30 33 31
2 2 2 5 2 5 4 4 4 3 2 4 3 6 10 12 9 6 8 7 8 11 13 16 16 16 18 27 34 33 34 35 33 30 30 25 13 18 21 22 23 28 25 26
3 2 3 4 5 2 3 3 2 5 6 5 9 12 9 8 5 6 3 5 9 9 12 14 13 17 28 31 34 38 37 39 33 30 31 34 28 22 19 24 20 19 24 25
6 2 3 1 2 8 4 3 2 3 6 4 5 8 8 8 5 4 2 3 5 7 9 11 18 21 26 29 35 35 36 38 35 34 36 35 28 26 29 25 24 25 29 25
4 8 1 3 2 3 2 5 3 1 2 2 2 6 7 11 6 4 6 4 8 8 13 16 20 19 22 29 31 27 31 34 34 38 38 34 31 38 32 28 29 35 36 33
5 2 5 5 4 3 3 4 1 3 5 5 2 5 3 3 4 5 7 5 5 10 14 21 21 17 19 26 27 24 26 26 33 31 33 39 45 42 39 38 36 33 40 42
2 1 2 3 2 4 1 4 3 5 6 3 5 3 4 6 6 3 7 7 5 8 14 20 17 19 23 24 24 24 27 33 32 31 38 40 41 39 37 35 35 38 38 36
3 4 3 2 4 12 3 6 6 3 5 5 5 5 5 6 5 4 3 7 4 4 12 17 17 19 24 25 24 23 32 37 33 34 33 34 38 40 37 38 37 34 32 33
4 3 3 3 5 5 5 2 2 2 5 8 6 7 6 7 6 7 3 4 5 6 7 14 17 15 18 26 27 28 31 30 30 31 34 34 34 33 39 38 37 36 32 29
6 6 7 12 15 8 3 5 7 6 6 8 9 7 8 6 7 6 3 3 3 6 9 11 13 13 16 23 26 28 31 30 24 24 28 31 31 31 29 33 34 31 38 32
4 5 4 5 3 4 6 6 7 7 9 11 12 14 10 7 7 5 4 3 6 4 6 8 10 12 16 18 22 26 27 28 29 23 24 26 25 27 28 26 24 34 36 35
Wind_Direction
302 301 275 279 278 280 300 301 294 287 289 291 282 283 283 285 288 285 278 272 263 267 312 56 43 349 316 302 290 286 288 289 288 285 283 276 276 267 262 262 262 261 263 265
302 274 294 318 304 295 298 293 298 298 302 304 297 288 292 281 274 280 301 323 43 31 10 13 358 334 312 302 300 295 292 289 288 283 278 277 272 268 269 266 268 263 258 261
297 287 308 302 303 308 296 302 310 304 304 294 295 292 299 294 297 281 74 33 56 36 13 353 332 318 316 310 305 300 296 292 289 287 286 282 280 271 266 265 260 258 260 257
282 324 305 306 303 296 307 313 303 301 308 292 319 290 290 290 282 255 120 85 31 17 357 339 325 313 310 307 303 297 292 288 285 283 279 270 266 267 262 258 255 255 255 253
272 296 307 299 287 295 299 315 310 297 285 290 283 258 267 265 32 42 81 49 16 357 348 325 315 315 316 311 303 298 294 290 286 282 275 272 269 267 266 259 260 262 251 250
265 279 273 289 303 283 311 310 297 280 266 251 262 298 266 328 27 38 48 13 357 340 318 316 322 320 313 310 304 300 295 290 288 283 279 275 268 267 264 258 261 253 252 249
309 284 295 315 337 310 52 322 308 314 332 269 321 327 267 288 79 81 32 1 334 318 327 324 324 321 314 309 305 301 296 293 289 283 277 273 270 269 264 264 252 259 245 238
299 305 312 334 306 297 301 277 288 296 291 303 308 263 274 56 82 95 12 324 319 330 325 324 318 313 312 309 307 303 299 292 285 279 275 272 267 263 262 257 254 249 255 236
319 309 332 303 4 324 293 234 288 292 252 267 242 277 318 72 59 17 328 338 333 326 329 322 320 318 314 309 304 300 296 292 287 281 274 266 263 260 257 254 251 249 248 242
298 301 307 283 331 295 221 319 323 278 298 306 291 300 304 354 346 343 341 332 329 324 325 322 317 312 310 308 305 302 297 292 288 282 274 270 263 257 254 253 248 246 242 241
309 240 319 315 359 303 283 268 255 269 258 300 324 298 232 239 244 305 328 327 319 316 309 303 300 305 308 307 305 300 298 293 289 285 277 269 261 255 252 252 248 247 240 229
288 306 291 292 295 156 255 276 273 261 310 285 266 294 245 184 245 355 332 312 308 307 301 303 307 311 313 315 312 308 302 296 287 282 276 266 260 252 248 243 240 243 230 233
298 224 303 314 325 57 289 166 238 276 251 249 280 282 292 319 328 333 309 300 308 309 312 319 321 319 319 319 313 312 309 302 294 288 276 265 253 243 238 237 234 235 240 225
348 314 244 279 279 292 293 294 269 197 252 287 267 293 304 314 317 320 311 301 310 307 316 323 324 326 325 320 319 320 318 315 307 299 280 264 248 234 226 227 229 232 243 223
243 249 229 252 262 276 262 266 277 217 250 265 293 305 297 305 305 294 289 324 318 321 329 330 329 329 326 324 326 327 324 323 320 306 294 277 253 229 220 217 222 226 236 227
219 279 340 289 248 248 257 269 267 269 278 270 283 284 265 286 308 318 324 328 320 326 331 328 333 333 329 326 325 326 330 331 329 328 325 319 211 198 200 208 217 219 228 205
255 343 305 265 252 310 310 259 223 283 194 174 281 269 319 323 328 308 319 318 310 319 331 330 334 333 326 328 327 330 333 339 345 348 353 11 39 112 148 168 186 192 187 180
267 172 225 272 332 342 247 4 141 207 247 232 272 284 302 298 279 280 319 293 310 322 331 329 332 332 331 331 336 338 345 351 352 1 8 21 31 53 85 107 106 123 148 160
204 180 279 204 282 269 101 348 332 96 294 243 295 305 306 309 307 296 316 282 280 307 316 314 330 332 334 339 340 345 352 349 359 5 14 19 32 54 64 75 84 94 99 96
218 205 256 336 261 270 227 307 159 113 248 340 259 282 314 330 344 281 305 307 311 311 323 325 337 340 350 346 343 352 352 352 360 6 8 15 32 47 53 63 75 77 81 84
313 289 209 252 289 293 236 305 261 287 291 296 239 258 304 324 234 262 301 309 295 307 326 344 343 346 354 351 350 354 355 356 354 7 12 22 32 40 41 47 54 68 71 69
237 321 321 340 279 317 180 318 4 266 294 274 292 268 266 257 286 262 284 294 308 319 339 354 343 349 358 3 2 358 359 349 2 15 23 25 30 35 37 45 50 52 63 63
299 198 224 237 251 301 280 214 264 242 248 290 293 311 304 308 300 265 258 285 315 334 337 351 355 346 357 10 16 9 355 6 4 18 27 27 32 36 39 42 45 50 53 66
265 278 221 339 272 287 278 213 280 232 257 290 303 307 313 309 309 304 236 277 303 331 346 348 358 357 352 4 18 22 21 25 14 20 21 24 32 38 38 44 44 49 49 53
263 294 259 274 280 302 262 20 5 334 331 345 335 323 318 305 308 293 267 194 265 307 332 349 355 355 0 4 14 23 24 36 27 30 29 27 26 29 38 46 52 56 58 61
219 230 221 261 119 248 272 346 351 358 335 332 328 324 322 320 300 301 266 220 184 237 304 333 347 355 0 11 12 16 29 33 45 38 32 34 34 32 35 37 42 48 53 57
Height
771 772 767 761 760 753 757 754 750 735 728 725 722 713 702 700 697 693 689 684 681 682 683 687 691 695 697 699 701 701 700 698 697 695 693 690 688 686 684 684 684 685 687 689
775 773 759 757 757 750 747 745 745 733 726 729 720 709 702 694 689 684 681 679 682 685 689 690 692 695 697 697 697 696 695 693 692 690 688 686 683 680 679 678 676 677 678 681
782 766 760 760 754 761 758 748 741 739 728 722 719 711 705 688 685 678 678 684 684 688 693 694 694 695 695 695 694 692 690 688 686 686 684 681 678 674 672 670 670 670 672 674
774 763 765 761 760 757 753 745 740 735 735 741 726 731 707 689 678 669 678 684 685 691 693 694 695 694 693 691 690 688 685 683 681 680 678 676 673 669 665 663 662 662 663 665
774 772 767 766 758 750 754 745 747 741 740 737 725 736 704 680 679 678 680 685 691 693 695 695 693 690 689 688 685 682 679 677 675 673 671 669 666 663 659 658 656 655 656 658
771 762 762 753 746 748 747 751 746 738 735 741 718 714 698 687 685 681 690 695 696 697 695 693 692 689 686 684 681 678 674 670 668 666 664 662 657 655 653 651 650 648 648 649
765 759 753 747 762 753 765 774 757 779 756 738 696 713 702 682 684 693 701 701 699 696 694 692 690 687 684 680 677 672 668 663 662 660 656 653 650 647 646 643 642 642 639 640
775 770 757 749 755 757 754 766 767 757 757 740 712 751 700 687 696 696 697 701 696 696 695 693 691 687 682 677 672 667 663 658 656 653 648 645 642 640 637 635 635 633 632 631
778 766 759 752 750 752 758 777 752 751 755 765 729 698 682 693 698 701 704 698 699 697 695 693 688 683 678 673 668 663 657 650 646 642 639 634 632 630 626 625 625 624 625 623
790 778 764 752 750 752 753 746 764 752 760 773 732 718 712 708 714 704 704 704 702 699 696 691 687 680 675 669 662 656 651 643 636 632 628 623 620 618 615 615 613 614 614 616
790 787 770 756 774 766 756 764 752 749 763 747 739 736 722 720 722 720 713 706 705 702 697 690 683 677 671 664 658 649 642 636 628 621 615 611 607 606 604 603 602 602 603 604
788 787 786 777 761 756 760 762 753 767 776 766 762 722 724 725 720 714 710 705 703 700 693 687 681 674 666 658 651 643 634 626 618 611 604 597 594 593 591 590 590 591 591 593
790 790 783 783 772 764 760 753 760 765 765 762 759 730 715 704 706 708 708 707 704 698 691 685 679 671 664 654 643 634 626 617 606 598 590 583 578 577 576 575 577 579 580 583
782 786 801 787 792 773 769 769 771 775 778 756 746 727 716 712 711 707 709 707 707 699 692 687 679 672 663 650 638 627 617 607 595 584 574 566 560 557 558 561 564 569 570 572
786 793 804 791 778 771 772 766 766 782 759 750 731 736 721 719 715 711 709 708 707 698 692 687 681 673 662 648 634 623 610 598 586 572 561 548 539 540 545 549 554 559 563 564
780 783 792 783 775 780 778 761 760 745 741 746 744 740 722 719 713 710 712 712 708 699 694 687 682 675 662 649 635 621 607 594 579 564 547 531 521 525 532 541 546 551 555 555
781 787 794 792 772 768 758 744 756 757 748 753 746 727 715 715 716 717 714 716 712 704 697 688 684 677 665 653 638 622 608 593 579 564 547 530 522 520 527 534 539 543 549 554
774 787 784 791 773 771 746 758 756 763 758 749 736 726 721 721 718 717 718 718 711 705 698 691 687 678 667 654 642 625 608 594 584 569 555 540 533 530 531 535 540 542 547 558
776 777 784 785 793 747 730 747 755 760 750 731 737 730 726 720 715 717 717 717 712 705 700 694 691 683 672 659 646 632 616 603 590 576 564 555 551 546 544 546 546 549 552 550
769 767 774 775 772 780 753 749 746 752 740 737 742 744 734 716 715 721 716 716 711 704 700 693 690 686 678 667 654 644 627 616 601 588 580 574 563 555 559 560 558 552 556 558
789 768 779 768 760 756 743 737 735 737 743 741 738 739 730 727 725 722 715 713 711 705 700 695 689 687 684 674 662 653 643 632 622 611 597 581 566 564 563 563 564 565 559 564
786 793 753 781 776 763 738 733 742 742 736 735 733 729 728 723 721 719 717 710 709 706 700 697 691 687 685 681 672 659 647 637 629 619 605 596 592 588 585 580 580 574 571 582
779 763 773 763 760 734 739 739 737 737 739 734 727 722 719 716 714 711 713 708 706 706 703 699 695 690 685 685 680 670 659 644 636 626 621 617 609 605 604 598 594 594 600 599
756 750 758 756 742 742 737 732 732 732 731 725 722 719 716 715 712 710 710 709 706 705 705 702 697 694 688 685 684 681 674 661 650 642 634 629 627 625 618 617 616 616 619 620
753 750 748 745 735 733 728 728 731 730 728 725 723 721 716 714 712 709 708 709 708 706 705 704 701 697 695 688 685 685 679 675 666 661 655 646 640 638 638 637 642 642 641 641
744 744 747 740 734 737 730 730 731 732 730 728 725 719 717 715 710 708 707 706 708 706 705 705 704 700 697 696 690 685 686 679 677 670 667 666 664 657 654 653 655 652 653 656